Location: Jasper Marmot Meadows
(52.8392°N, 118.0718°W)
Time: 09:59:15
(UTC-06:00)

N. Korean satellite - Pass Details

Date: 27 September 2018
Orbit: 459 x 510 km, 97.2° (Epoch: 21 October)

Event Time Altitude Azimuth Distance (km) Brightness Sun altitude
Rises 06:59:22 0° 32° (NNE) 2,625 10.9 -8.0°
Reaches altitude 10° 07:02:59 10° 69° (ENE) 1,736 10.9 -7.5°
Maximum altitude 07:04:06 11° 86° (E) 1,667 11.0 -7.3°
Drops below altitude 10° 07:05:13 10° 103° (ESE) 1,733 10.7 -7.1°
Sets 07:08:47 0° 140° (SE) 2,611 10.8 -6.6°
